This is the latest recevied weather packets stored in our database for station/object N8SHA. If no packets are shown the sender has not sent any weather packets the latest 10 day(s).
| Time | Temp. | Humidity | Pressure | Rain* | Wind** | Luminosity | Snow |
|---|---|---|---|---|---|---|---|
| 1777762314 | 8.33° C | 46% | 1015.7 hPa | 0 mm | - | 56 W/m² | - |
| 1777762010 | 8.33° C | 47% | 1015.5 hPa | 0 mm | - | 66 W/m² | - |
| 1777761707 | 8.33° C | 47% | 1015.6 hPa | 0 mm | - | 93 W/m² | - |
| 1777761405 | 8.33° C | 47% | 1015.8 hPa | 0 mm | - | 92 W/m² | - |
| 1777761103 | 8.33° C | 46% | 1015.5 hPa | 0 mm | - | 104 W/m² | - |
| 1777760800 | 8.89° C | 46% | 1015.6 hPa | 0 mm | - | 134 W/m² | - |
| 1777760496 | 8.89° C | 47% | 1015.7 hPa | 0 mm | - | 243 W/m² | - |
| 1777760192 | 8.33° C | 45% | 1015.7 hPa | 0 mm | - | 99 W/m² | - |
| 1777759884 | 8.33° C | 46% | 1015.7 hPa | 0 mm | - | 98 W/m² | - |
| 1777759580 | 8.33° C | 46% | 1015.8 hPa | 0 mm | - | 96 W/m² | - |
| 1777759276 | 8.89° C | 45% | 1015.6 hPa | 0 mm | - | 107 W/m² | - |
| 1777758974 | 10° C | 41% | 1015.6 hPa | 0 mm | - | 92 W/m² | - |
| 1777758671 | 10° C | 43% | 1015.8 hPa | 0 mm | - | 434 W/m² | - |
| 1777758368 | 8.89° C | 46% | 1015.9 hPa | 0 mm | - | 211 W/m² | - |
| 1777758065 | 8.33° C | 48% | 1016 hPa | 0 mm | - | 201 W/m² | - |
| 1777757762 | 8.33° C | 47% | 1015.9 hPa | 0 mm | - | 182 W/m² | - |
| 1777757459 | 8.33° C | 46% | 1015.9 hPa | 0 mm | - | 158 W/m² | - |
| 1777757158 | 8.33° C | 47% | 1015.8 hPa | 0 mm | - | 137 W/m² | - |
| 1777756856 | 8.33° C | 46% | 1015.9 hPa | 0 mm | - | 158 W/m² | - |
| 1777756551 | 8.89° C | 46% | 1016.1 hPa | 0 mm | - | 196 W/m² | - |
| 1777756248 | 8.89° C | 47% | 1015.8 hPa | 0 mm | - | 297 W/m² | - |
| 1777755945 | 8.33° C | 50% | 1016.1 hPa | 0 mm | - | 181 W/m² | - |
| 1777755642 | 8.33° C | 47% | 1016.1 hPa | 0 mm | - | 150 W/m² | - |
| 1777755339 | 8.33° C | 46% | 1015.9 hPa | 0 mm | - | 162 W/m² | - |
| 1777755036 | 8.33° C | 47% | 1016.1 hPa | 0 mm | - | 181 W/m² | - |
* Rain latest hour (hover to see other rain measurements)
** Current wind speed in m/s (hover to see current wind gust speed)